TimeEST,TemperatureF,Dew PointF,Humidity,Sea Level PressureIn,VisibilityMPH,Wind Direction,Wind SpeedMPH,Gust SpeedMPH,PrecipitationIn,Events,Conditions,WindDirDegrees,DateUTC
12:45 AM,60.8,57.2,88,29.99,3.0,Variable,5.8,-,0.06,Rain,Rain,0,2013-11-07 05:45:00
12:49 AM,60.8,57.2,88,29.99,2.5,Variable,6.9,-,0.09,Rain,Rain,0,2013-11-07 05:49:00
12:53 AM,60.1,57.9,93,29.97,1.5,SW,12.7,19.6,0.16,Rain,Heavy Rain,220,2013-11-07 05:53:00
1:02 AM,60.8,57.2,88,29.97,2.5,SW,10.4,21.9,0.03,Rain,Rain,220,2013-11-07 06:02:00
1:09 AM,60.8,57.2,88,29.97,5.0,SW,9.2,-,0.03,Rain,Light Rain,220,2013-11-07 06:09:00
1:51 AM,60.8,57.2,88,29.95,6.0,SW,8.1,-,0.06,Rain,Light Rain,220,2013-11-07 06:51:00
1:53 AM,60.1,57.9,93,29.94,7.0,WSW,6.9,-,0.06,Rain,Light Rain,240,2013-11-07 06:53:00
2:03 AM,59.0,57.2,94,29.97,5.0,WNW,15.0,20.7,0.01,Rain,Light Rain,300,2013-11-07 07:03:00
2:08 AM,57.2,55.4,94,29.97,1.8,WNW,15.0,20.7,0.11,Rain,Heavy Rain,300,2013-11-07 07:08:00
2:19 AM,57.2,55.4,94,29.97,2.0,WNW,8.1,19.6,0.20,Rain,Heavy Rain,290,2013-11-07 07:19:00
2:37 AM,57.2,55.4,94,29.98,5.0,WNW,8.1,-,0.26,Rain,Light Rain,290,2013-11-07 07:37:00
2:50 AM,55.4,55.4,100,29.97,5.0,WNW,4.6,-,0.28,Rain,Light Rain,300,2013-11-07 07:50:00
2:53 AM,55.9,55.0,97,29.96,5.0,WNW,4.6,-,0.29,Rain,Light Rain,300,2013-11-07 07:53:00
3:05 AM,55.4,55.4,100,29.97,7.0,WNW,4.6,-,0.00,Rain,Light Rain,290,2013-11-07 08:05:00
3:30 AM,55.4,53.6,94,29.97,2.5,WNW,17.3,20.7,0.09,Rain,Heavy Rain,290,2013-11-07 08:30:00
3:50 AM,51.8,50.0,94,30.00,3.0,NW,16.1,25.3,0.20,Rain,Rain,310,2013-11-07 08:50:00
3:53 AM,52.0,50.0,93,29.99,3.0,NW,12.7,25.3,0.21,Rain,Heavy Rain,320,2013-11-07 08:53:00
4:07 AM,51.8,48.2,88,30.00,5.0,NW,11.5,-,0.04,Rain,Rain,320,2013-11-07 09:07:00
4:15 AM,51.8,48.2,88,30.01,5.0,NW,13.8,21.9,0.05,Rain,Light Rain,320,2013-11-07 09:15:00
4:34 AM,50.0,48.2,94,30.01,6.0,NW,5.8,-,0.08,Rain,Rain,320,2013-11-07 09:34:00
4:53 AM,50.0,48.0,93,30.03,5.0,West,9.2,-,0.11,Rain,Rain,280,2013-11-07 09:53:00
5:53 AM,46.9,45.0,93,30.05,4.0,NW,10.4,16.1,0.12,Rain,Rain,310,2013-11-07 10:53:00
6:09 AM,46.4,42.8,87,30.04,7.0,NW,10.4,18.4,0.02,Rain,Light Rain,320,2013-11-07 11:09:00
6:53 AM,45.0,42.1,90,30.08,10.0,NW,5.8,-,0.03,,Overcast,320,2013-11-07 11:53:00
7:06 AM,44.6,42.8,93,30.08,10.0,NW,6.9,-,N/A,,Overcast,310,2013-11-07 12:06:00
7:53 AM,45.0,41.0,86,30.10,10.0,NW,8.1,-,N/A,,Overcast,310,2013-11-07 12:53:00
8:04 AM,44.6,41.0,87,30.11,10.0,NW,11.5,16.1,N/A,,Overcast,320,2013-11-07 13:04:00
8:53 AM,45.0,41.0,86,30.14,10.0,WNW,10.4,-,N/A,,Overcast,300,2013-11-07 13:53:00
9:00 AM,44.6,41.0,87,30.15,10.0,WNW,11.5,17.3,N/A,,Overcast,290,2013-11-07 14:00:00
9:21 AM,44.6,39.2,81,30.16,10.0,WNW,11.5,-,N/A,,Overcast,290,2013-11-07 14:21:00
9:28 AM,44.6,39.2,81,30.16,10.0,WNW,11.5,16.1,N/A,,Overcast,300,2013-11-07 14:28:00
9:53 AM,45.0,37.9,76,30.17,10.0,WNW,10.4,-,N/A,,Overcast,300,2013-11-07 14:53:00
10:53 AM,46.0,36.0,68,30.18,10.0,WNW,6.9,-,N/A,,Overcast,290,2013-11-07 15:53:00
11:53 AM,46.0,36.0,68,30.19,10.0,WNW,11.5,18.4,N/A,,Overcast,290,2013-11-07 16:53:00
12:53 PM,46.9,30.9,54,30.17,10.0,NW,10.4,17.3,N/A,,Overcast,310,2013-11-07 17:53:00
1:53 PM,46.9,32.0,56,30.16,10.0,NW,13.8,21.9,N/A,,Overcast,310,2013-11-07 18:53:00
2:53 PM,48.0,30.9,52,30.16,10.0,WNW,16.1,26.5,N/A,,Mostly Cloudy,290,2013-11-07 19:53:00
3:53 PM,48.0,25.0,41,30.17,10.0,WNW,15.0,20.7,N/A,,Mostly Cloudy,300,2013-11-07 20:53:00
4:53 PM,45.0,24.1,44,30.20,10.0,West,9.2,17.3,N/A,,Scattered Clouds,280,2013-11-07 21:53:00
5:53 PM,44.1,25.0,47,30.22,10.0,WNW,5.8,-,N/A,,Overcast,290,2013-11-07 22:53:00
6:53 PM,43.0,25.0,49,30.23,10.0,WNW,5.8,-,N/A,,Overcast,290,2013-11-07 23:53:00
7:53 PM,41.0,26.1,55,30.23,10.0,Calm,Calm,-,N/A,,Partly Cloudy,0,2013-11-08 00:53:00
8:53 PM,37.0,28.0,70,30.23,10.0,WSW,3.5,-,N/A,,Clear,250,2013-11-08 01:53:00
9:53 PM,35.1,27.0,72,30.23,10.0,WSW,3.5,-,N/A,,Clear,240,2013-11-08 02:53:00
10:53 PM,36.0,28.0,73,30.23,10.0,WSW,4.6,-,N/A,,Overcast,240,2013-11-08 03:53:00
11:53 PM,37.9,27.0,65,30.21,10.0,SW,5.8,-,N/A,,Scattered Clouds,230,2013-11-08 04:53:00